User: anonymous
Location: Caltech
(34.1382°N, 118.1253°W)
Time: 21:24:13
(UTC-07:00)
Language:

Iridium 14 - Orbit

View from above orbital plane
View from above orbital plane
View from above satellite
View from above satellite

Ground track
Ground track

The orbit data is extracted from the following two-line orbital elements,

1 25777U 99032A   14266.19147623  .00000102  00000-0  29179-4 0   900
2 25777 086.3919 281.0806 0002443 097.0261 315.0209 14.34228520811639
Epoch (UTC): 23 September 2014 04:35:43
Eccentricity: 0.0002443
inclination: 86.3919°
perigee height: 776 km
apogee height: 779 km
right ascension of ascending node: 281.0806°
argument of perigee: 97.0261°
revolutions per day: 14.34228520
mean anomaly at epoch: 315.0209°
orbit number at epoch: 81163

The dashed part of the orbit path shows where the satellite is in the earth's shadow,  

DLR